When you browse on this site, cookies collect data to enhance your experience and personalize the content and advertising you see.
Visit our Privacy Policy to learn more. By continuing to use the site, you agree to this use of cookies and data.
  • In Lithuania
  • List of Countries
  • For 7 days
  • Water Temperature
  • Satellite Maps
  • Weather Map
  • Weather Widgets
  • user-avatar
    Login

    Hourly Weather Radyczyny

    Today, 23 April, Tuesday

    Time Temperature Precipitation Wind Pressure Humidity
    00:00 +9°C° 0 mm 6 mps 756 mmHg 58%
    01:00 +8°C° 0 mm 6 mps 756 mmHg 57%
    02:00 +8°C° 0 mm 7 mps 756 mmHg 57%
    03:00 +8°C° 0 mm 7 mps 755 mmHg 56%
    04:00 +6°C° 0 mm 7 mps 755 mmHg 55%
    05:00 +7°C° 0 mm 8 mps 755 mmHg 54%
    06:00 +8°C° 0 mm 9 mps 755 mmHg 53%
    07:00 +8°C° 0 mm 9 mps 755 mmHg 52%
    08:00 +11°C° 0 mm 10 mps 755 mmHg 48%
    09:00 +12°C° 0 mm 10 mps 754 mmHg 45%
    10:00 +14°C° 0 mm 11 mps 754 mmHg 42%
    11:00 +16°C° 0 mm 11 mps 754 mmHg 41%
    12:00 +17°C° 0 mm 11 mps 753 mmHg 41%
    13:00 +17°C° 0 mm 11 mps 753 mmHg 41%
    14:00 +17°C° 0 mm 11 mps 752 mmHg 42%
    15:00 +18°C° 0 mm 10 mps 752 mmHg 43%
    16:00 +18°C° 0 mm 10 mps 752 mmHg 44%
    17:00 +16°C° 0 mm 9 mps 752 mmHg 46%
    18:00 +15°C° 0 mm 8 mps 752 mmHg 48%
    19:00 +13°C° 0 mm 8 mps 752 mmHg 50%
    20:00 +12°C° 0 mm 7 mps 752 mmHg 51%
    21:00 +12°C° 0 mm 7 mps 752 mmHg 52%
    22:00 +12°C° 0 mm 7 mps 752 mmHg 53%
    23:00 +11°C° 0 mm 7 mps 752 mmHg 53%

    Tomorrow, 24 April, Wednesday

    Time Temperature Precipitation Wind Pressure Humidity
    00:00 +11°C° 0 mm 7 mps 751 mmHg 54%
    01:00 +11°C° 0 mm 7 mps 751 mmHg 54%
    02:00 +11°C° 0 mm 7 mps 751 mmHg 57%
    03:00 +10°C° 0 mm 7 mps 751 mmHg 59%
    04:00 +10°C° 0 mm 7 mps 751 mmHg 62%
    05:00 +10°C° 0 mm 7 mps 751 mmHg 65%
    06:00 +10°C° 0 mm 7 mps 751 mmHg 68%
    07:00 +11°C° 0 mm 7 mps 751 mmHg 71%
    08:00 +12°C° 0 mm 7 mps 751 mmHg 67%
    09:00 +15°C° 0 mm 7 mps 751 mmHg 64%
    10:00 +16°C° 0 mm 7 mps 751 mmHg 60%
    11:00 +17°C° 0 mm 7 mps 751 mmHg 59%
    12:00 +18°C° 0 mm 7 mps 751 mmHg 57%
    13:00 +20°C° 0 mm 7 mps 751 mmHg 55%
    14:00 +20°C° 0 mm 6 mps 751 mmHg 56%
    15:00 +20°C° 0 mm 6 mps 751 mmHg 57%
    16:00 +20°C° 0 mm 5 mps 751 mmHg 57%
    17:00 +19°C° 0 mm 5 mps 751 mmHg 60%
    18:00 +17°C° 0 mm 5 mps 751 mmHg 63%
    19:00 +16°C° 0 mm 5 mps 751 mmHg 66%
    20:00 +15°C° 0 mm 5 mps 751 mmHg 69%
    21:00 +15°C° 0 mm 5 mps 751 mmHg 72%
    22:00 +14°C° 0 mm 5 mps 751 mmHg 75%
    23:00 +14°C° 0 mm 5 mps 751 mmHg 73%

    Day after tomorrow, 25 April, Thursday

    Time Temperature Precipitation Wind Pressure Humidity
    00:00 +14°C° 0 mm 5 mps 751 mmHg 71%
    01:00 +15°C° 0 mm 5 mps 751 mmHg 68%
    02:00 +14°C° 0 mm 5 mps 751 mmHg 72%
    03:00 +13°C° 0 mm 5 mps 751 mmHg 76%
    04:00 +12°C° 0 mm 4 mps 751 mmHg 80%
    05:00 +14°C° 0 mm 5 mps 751 mmHg 78%
    06:00 +15°C° 0 mm 5 mps 752 mmHg 76%
    07:00 +16°C° 0 mm 5 mps 752 mmHg 73%
    08:00 +18°C° 0 mm 4 mps 752 mmHg 68%
    09:00 +20°C° 0 mm 4 mps 752 mmHg 62%
    10:00 +22°C° 0 mm 4 mps 752 mmHg 57%
    11:00 +23°C° 0 mm 4 mps 752 mmHg 54%
    12:00 +23°C° 0 mm 4 mps 752 mmHg 51%
    13:00 +25°C° 0 mm 4 mps 752 mmHg 49%
    14:00 +25°C° 0 mm 4 mps 752 mmHg 49%
    15:00 +25°C° 0 mm 3 mps 751 mmHg 49%
    16:00 +25°C° 0 mm 3 mps 751 mmHg 49%
    17:00 +24°C° 0 mm 3 mps 751 mmHg 54%
    18:00 +21°C° 0 mm 2 mps 751 mmHg 59%
    19:00 +19°C° 0 mm 2 mps 751 mmHg 64%
    20:00 +19°C° 0 mm 2 mps 751 mmHg 65%
    21:00 +18°C° 0 mm 3 mps 751 mmHg 67%
    22:00 +17°C° 0 mm 3 mps 751 mmHg 68%
    23:00 +17°C° 0 mm 3 mps 751 mmHg 69%

    26 April, Friday

    Time Temperature Precipitation Wind Pressure Humidity
    00:00 +17°C° 0 mm 3 mps 750 mmHg 70%
    01:00 +15°C° 0 mm 4 mps 750 mmHg 71%
    02:00 +15°C° 0 mm 4 mps 750 mmHg 72%
    03:00 +15°C° 0 mm 4 mps 750 mmHg 74%
    04:00 +15°C° 0 mm 4 mps 749 mmHg 75%
    05:00 +16°C° 0 mm 5 mps 749 mmHg 72%
    06:00 +19°C° 0 mm 5 mps 749 mmHg 69%
    07:00 +20°C° 0 mm 6 mps 749 mmHg 66%
    08:00 +21°C° 0 mm 6 mps 748 mmHg 60%
    09:00 +23°C° 0 mm 7 mps 748 mmHg 55%
    10:00 +24°C° 0 mm 7 mps 748 mmHg 49%
    11:00 +26°C° 0 mm 7 mps 748 mmHg 47%
    12:00 +27°C° 0 mm 6 mps 747 mmHg 45%
    13:00 +28°C° 0 mm 6 mps 747 mmHg 43%
    14:00 +27°C° 0 mm 5 mps 747 mmHg 44%
    15:00 +27°C° 0 mm 5 mps 747 mmHg 46%
    16:00 +27°C° 0 mm 5 mps 747 mmHg 47%
    17:00 +25°C° 0.1 mm 4 mps 747 mmHg 54%
    18:00 +24°C° 0.1 mm 3 mps 747 mmHg 61%
    19:00 +21°C° 0.1 mm 3 mps 747 mmHg 67%
    20:00 +20°C° 0.3 mm 3 mps 748 mmHg 75%
    21:00 +18°C° 0.3 mm 3 mps 748 mmHg 84%
    22:00 +17°C° 0.3 mm 4 mps 748 mmHg 92%
    23:00 +17°C° 0.4 mm 4 mps 748 mmHg 93%

    27 April, Saturday

    Time Temperature Precipitation Wind Pressure Humidity
    00:00 +17°C° 0.4 mm 4 mps 749 mmHg 93%
    01:00 +15°C° 0.4 mm 4 mps 749 mmHg 94%
    02:00 +15°C° 0.5 mm 4 mps 749 mmHg 93%
    03:00 +15°C° 0.5 mm 4 mps 750 mmHg 93%
    04:00 +14°C° 0.5 mm 5 mps 750 mmHg 92%
    05:00 +13°C° 0.1 mm 5 mps 750 mmHg 90%
    06:00 +12°C° 0.1 mm 5 mps 751 mmHg 88%
    07:00 +12°C° 0.1 mm 5 mps 751 mmHg 85%
    08:00 +12°C° 0 mm 5 mps 751 mmHg 81%
    09:00 +11°C° 0 mm 6 mps 751 mmHg 77%
    10:00 +13°C° 0 mm 6 mps 751 mmHg 73%
    11:00 +13°C° 0.1 mm 5 mps 752 mmHg 71%
    12:00 +14°C° 0.1 mm 5 mps 752 mmHg 70%
    13:00 +14°C° 0.1 mm 5 mps 752 mmHg 68%
    14:00 +14°C° 0.3 mm 5 mps 752 mmHg 72%
    15:00 +13°C° 0.3 mm 4 mps 752 mmHg 76%
    16:00 +13°C° 0.3 mm 4 mps 752 mmHg 79%
    17:00 +12°C° 0.4 mm 4 mps 752 mmHg 82%
    18:00 +12°C° 0.4 mm 3 mps 752 mmHg 85%
    19:00 +12°C° 0.4 mm 3 mps 752 mmHg 89%
    20:00 +11°C° 0.3 mm 3 mps 753 mmHg 90%
    21:00 +12°C° 0.3 mm 2 mps 753 mmHg 91%
    22:00 +12°C° 0.3 mm 2 mps 753 mmHg 92%
    23:00 +11°C° 0.2 mm 3 mps 754 mmHg 92%

    28 April, Sunday

    Time Temperature Precipitation Wind Pressure Humidity
    00:00 +11°C° 0.2 mm 4 mps 754 mmHg 91%
    01:00 +10°C° 0.2 mm 5 mps 754 mmHg 91%
    02:00 +9°C° 0.3 mm 5 mps 754 mmHg 89%
    03:00 +8°C° 0.3 mm 6 mps 755 mmHg 88%
    04:00 +7°C° 0.3 mm 6 mps 755 mmHg 87%
    05:00 +7°C° 0.1 mm 6 mps 756 mmHg 85%
    06:00 +7°C° 0.1 mm 6 mps 756 mmHg 83%
    07:00 +7°C° 0.1 mm 6 mps 757 mmHg 81%
    08:00 +8°C° 0 mm 6 mps 757 mmHg 73%
    09:00 +9°C° 0 mm 6 mps 757 mmHg 65%
    10:00 +10°C° 0 mm 6 mps 757 mmHg 57%
    11:00 +11°C° 0 mm 6 mps 757 mmHg 52%
    12:00 +13°C° 0 mm 5 mps 757 mmHg 47%
    13:00 +13°C° 0 mm 5 mps 757 mmHg 42%
    14:00 +13°C° 0 mm 5 mps 756 mmHg 42%
    15:00 +13°C° 0 mm 4 mps 756 mmHg 43%
    16:00 +13°C° 0 mm 4 mps 756 mmHg 44%
    17:00 +12°C° 0 mm 3 mps 756 mmHg 49%
    18:00 +12°C° 0 mm 2 mps 756 mmHg 53%
    19:00 +9°C° 0 mm 2 mps 756 mmHg 58%
    20:00 +10°C° 0 mm 1 mps 756 mmHg 58%
    21:00 +9°C° 0 mm 1 mps 756 mmHg 58%
    22:00 +9°C° 0 mm 1 mps 756 mmHg 57%
    23:00 +8°C° 0 mm 1 mps 756 mmHg 59%
    Show more